Regional Weather Roundup
Issued by NWS

Home | Current Version | Previous Version | Graphics & Text | Print | Product List | Glossary On
Versions: 1 2 3 4 5 6 7 8 9 10 11 12 13 14 15 16 17 18 19 20 21 22 23 24 25 26 27 28 29 30 31 32 33 34 35 36 37 38 39 40 41 42 43 44 45 46 47 48 49 50
000
ASUS43 KIND 212109
RWRIN

WEATHER ROUNDUP FOR INDIANA
NATIONAL WEATHER SERVICE INDIANAPOLIS IN
400 PM EST TUE FEB 21 2017

NOTE: "FAIR" INDICATES FEW OR NO CLOUDS BELOW 12,000 FEET WITH NO
SIGNIFICANT WEATHER AND/OR OBSTRUCTIONS TO VISIBILITY.

* - STATION DOES NOT REPORT WEATHER SUCH AS PRECIPITATION OR FOG.

+ - STATION NOT QUALITY CONTROLLED BY THE NATIONAL WEATHER SERVICE.
    USE DATA WITH CAUTION...ESPECIALLY DEWPOINT AND RELATIVE
    HUMIDITY OBSERVATIONS.

INZ001>003-010>013-019-020-212200-
NORTHWEST INDIANA

CITY           SKY/WX    TMP DP  RH WIND       PRES   REMARKS
GARY /AIRPORT/ PTSUNNY   68  52  56 SW9       29.90F
KNOX *+        MOSUNNY   63  32  31 SW5       29.92R
LA PORTE +     PTSUNNY   63  54  73 SW5       29.92S
MICHIGAN CITY+ CLOUDY    63  52  67 W3        29.92S
MONTICELLO +   CLOUDY    60  50  69 S3        29.92S
RENSSELAER +   CLOUDY    64  54  68 S3        29.92S
VALPARAISO     MOSUNNY   65  54  67 SW6       29.92S

$$

LMZ046-743>745-212200-
SOUTHERN LAKE MICHIGAN

STATION/POSITION TIME  TEMP    WIND        PRES    WAVE
                       AIR SEA DIR/SP/G            HT
                 (UTC) (F)     (DEG/KT/KT) (MB)    (FT)
BURNS HARBOR     2040   51     320/  2/  4 1013.2F
MICHIGAN CITY    2040   52     360/  3/  4   N/A

$$

INZ004-005-014>016-021>024-212200-
NORTH CENTRAL INDIANA

CITY           SKY/WX    TMP DP  RH WIND       PRES   REMARKS
ELKHART        SUNNY     63  52  67 W6        29.92S
GOSHEN         CLOUDY    61  50  67 S7        29.93R
LOGANSPORT +   CLOUDY    59  50  72 CALM      29.93F
PERU/GRISSOM   CLOUDY    60  52  75 CALM      29.91F
ROCHESTER +    CLOUDY    63  52  67 S6        29.93R
SOUTH BEND     PTSUNNY   62  53  72 W5        29.92F
WARSAW +       CLOUDY    59  50  72 CALM      29.94R

$$

INZ006>009-017-018-025>027-212200-
NORTHEAST INDIANA

CITY           SKY/WX    TMP DP  RH WIND       PRES   REMARKS
ANGOLA *+      CLOUDY    59  54  82 S5        29.93R
AUBURN +       CLOUDY    59  48  67 S3        29.95S
FORT WAYNE     CLOUDY    60  49  66 SW5       29.94S
HUNTINGTON +   CLOUDY    60  48  65 CALM      29.93F
KENDALLVILLE + CLOUDY    59  49  69 SW5       29.94R

$$

INZ028-029-035-036-043>045-051>053-212200-
WEST CENTRAL INDIANA

CITY           SKY/WX    TMP DP  RH WIND       PRES   REMARKS
GREENCASTLE +  CLOUDY    63  46  55 S5        29.94R
LAFAYETTE      CLOUDY    61  51  70 CALM      29.91F
TERRE HAUTE    CLOUDY    64  49  57 S5        29.92S

$$

INZ030>032-037>040-046>048-054>057-064-065-212200-
CENTRAL INDIANA

CITY           SKY/WX    TMP DP  RH WIND       PRES   REMARKS
ANDERSON       CLOUDY    63  46  55 CALM      29.95
CP ATTERBURY + CLOUDY    61  50  67 SE6       29.94S
COLUMBUS       CLOUDY    57  55  94 S10       29.95F
FRANKFORT +    CLOUDY    63  53  71 S3        29.94S
GREENWOOD *+   CLOUDY    64  50  61 SE3       29.95S
INDIANAPOLIS   CLOUDY    63  48  58 S6        29.93R
-EAGLE CREEK   CLOUDY    64  47  53 S6        29.92S
KOKOMO +       CLOUDY    61  51  70 N3        29.93F
MARION +       CLOUDY    61  49  65 CALM      29.94S
MT COMFORT *+  CLOUDY    63  48  59 S7        29.94R
SHELBYVILLE    CLOUDY    64  48  56 S8        29.93F
ZIONSVILLE +   CLOUDY    61  48  63 CALM      29.93F

$$

INZ033-034-041-042-049-050-058-059-212200-
EAST CENTRAL INDIANA

CITY           SKY/WX    TMP DP  RH WIND       PRES   REMARKS
MUNCIE         CLOUDY    64  47  53 S6        29.94S

$$

INZ060-061-067>069-081>083-085>088-212200-
SOUTHWEST INDIANA

CITY           SKY/WX    TMP DP  RH WIND       PRES   REMARKS
EVANSVILLE     CLOUDY    64  52  64 E5        29.92F
HUNTINGBURG *+ CLOUDY    64  54  69 CALM      29.94S
WASHINGTON +   LGT RAIN  59  52  79 S10       29.92F

$$

INZ062-063-066-070>080-084-089>092-212200-
SOUTH CENTRAL AND SOUTHEAST INDIANA

CITY           SKY/WX    TMP DP  RH WIND       PRES   REMARKS
BEDFORD +      RAIN     N/A N/A N/A CALM      29.94F
BLOOMINGTON    LGT RAIN  57  52  83 S8        29.94S
MADISON *+     CLOUDY    63  50  63 SE5       29.98S
NORTH VERNON + LGT RAIN  61  50  67 CALM      29.96S
SEYMOUR +      LGT RAIN  59  54  82 CALM      29.95F

$$




USA.gov is the U.S. government's official web portal to all federal, state and local government web resources and services.